Date String (YYYY-MM-DD hh:mm:ss) UTC,Instrument flags,Ambient pressure (hPa),Sample flow (lpm),Bypass flow (lpm),Sample temperature (°C),Ambient temperature (°C),ASC tube jacket temperature (°C),LED temperature (°C),Box temperature (°C),Sample RH (%),Span deviation,Mass concentration (μg/m³),Mass concentration (μg/m³),Mass concentration (μg/m³)
DateTimeUTC,F1_M11,P_M11,Q1_M11,Q2_M11,T1_M11,T2_M11,T3_M11,T4_M11,T5_M11,U1_M11,ZSPAN_M11,X0_M11,X2_M11,X1_M11
2021-08-19 18:00:00,,0825.4,5.00,0.00,29.8,26.2,00.0,38.9,31.0,34.8,0001.5,0016.81,0009.89,0008.54
2021-08-19 18:01:00,,0825.5,5.02,0.00,29.8,26.6,00.0,38.9,31.1,35.0,0001.5,0017.34,0009.85,0008.50
2021-08-19 18:02:00,,0825.4,5.00,0.00,29.9,27.0,00.0,38.8,31.3,34.2,0001.2,0017.95,0009.92,0008.49
2021-08-19 18:03:00,,0825.5,4.98,0.00,30.0,27.4,00.0,38.8,31.4,34.6,0001.0,0018.47,0009.89,0008.47
2021-08-19 18:04:00,,0825.4,5.01,0.00,30.0,27.8,00.0,38.8,31.5,34.3,0000.8,0017.91,0009.87,0008.48
2021-08-19 18:05:00,,0825.4,5.00,0.00,30.1,28.1,00.0,38.9,31.5,33.9,0001.0,0017.42,0009.86,0008.50
2021-08-19 18:06:00,,0825.4,5.00,0.00,30.1,28.3,00.0,38.9,31.6,33.6,0001.0,0018.47,0009.84,0008.49
2021-08-19 18:07:00,,0825.5,4.99,0.00,30.2,28.5,00.0,38.9,31.7,33.6,0000.9,0018.74,0009.83,0008.50
2021-08-19 18:08:00,,0825.4,4.99,0.00,30.2,28.7,00.0,39.0,31.7,33.7,0001.0,0018.69,0009.81,0008.51
2021-08-19 18:09:00,,0825.4,5.01,0.00,30.3,28.8,00.0,39.0,31.8,33.6,0001.1,0019.55,0009.80,0008.51
2021-08-19 18:10:00,,0825.4,4.99,0.00,30.3,28.8,00.0,39.0,31.8,33.2,0001.0,0019.55,0009.80,0008.53
2021-08-19 18:11:00,,0825.4,5.00,0.00,30.2,27.4,00.0,39.0,31.4,33.5,0001.0,0019.14,0009.80,0008.53
2021-08-19 18:12:00,,0825.4,5.00,0.00,30.1,26.3,00.0,39.0,31.1,34.0,0000.8,0019.54,0009.86,0008.55
2021-08-19 18:13:00,,0825.4,5.00,0.00,30.0,26.2,00.0,39.0,31.0,34.0,0001.2,0019.31,0009.80,0008.55
2021-08-19 18:14:00,,0825.3,5.01,0.00,29.9,26.6,00.0,39.0,31.1,34.1,0001.4,0019.01,0009.80,0008.57
2021-08-19 18:15:00,,0825.4,4.99,0.00,29.9,27.0,00.0,38.9,31.2,34.1,0001.6,0019.41,0009.83,0008.57
2021-08-19 18:16:00,,0825.4,5.01,0.00,29.9,27.4,00.0,38.9,31.3,34.5,0001.5,0020.13,0009.89,0008.59
2021-08-19 18:17:00,,0825.3,4.99,0.00,29.9,27.8,00.0,38.9,31.4,34.6,0001.6,0019.65,0009.88,0008.60
2021-08-19 18:18:00,,0825.3,5.00,0.00,29.9,28.1,00.0,38.9,31.5,34.2,0001.6,0019.92,0009.93,0008.60
2021-08-19 18:19:00,,0825.4,5.01,0.00,30.0,28.3,00.0,38.9,31.6,34.4,0001.6,0021.70,0010.03,0008.61
2021-08-19 18:20:00,,0825.3,4.99,0.00,30.0,28.5,00.0,38.9,31.7,34.3,0001.5,0022.50,0010.02,0008.62
2021-08-19 18:21:00,,0825.4,4.99,0.00,30.0,28.7,00.0,39.0,31.7,34.2,0001.6,0023.90,0010.08,0008.62
2021-08-19 18:22:00,,0825.3,5.01,0.00,30.1,28.8,00.0,39.0,31.8,34.1,0001.9,0025.61,0010.11,0008.63
2021-08-19 18:23:00,,0825.2,4.99,0.00,30.1,27.8,00.0,39.0,31.5,34.1,0002.3,0025.68,0010.08,0008.64
2021-08-19 18:24:00,,0825.2,5.00,0.00,29.9,26.4,00.0,38.9,31.0,34.7,0002.3,0026.33,0010.15,0008.70
2021-08-19 18:25:00,,0825.2,5.01,0.00,29.8,26.1,00.0,38.9,31.0,35.2,0002.3,0026.23,0010.23,0008.76
2021-08-19 18:26:00,,0825.2,5.01,0.00,29.9,26.4,00.0,38.9,31.2,35.5,0002.2,0026.00,0010.28,0008.80
2021-08-19 18:27:00,,0825.2,5.00,0.00,30.2,26.8,00.0,38.9,31.4,34.5,0002.2,0025.78,0010.37,0008.85
2021-08-19 18:28:00,,0825.3,5.00,0.00,30.4,27.2,00.0,38.9,31.5,34.0,0001.9,0027.05,0010.46,0008.88
2021-08-19 18:29:00,,0825.3,5.01,0.00,30.5,27.6,00.0,38.9,31.6,33.9,0002.0,0028.16,0010.57,0008.93
2021-08-19 18:30:00,,0825.3,4.99,0.00,30.5,27.9,00.0,38.9,31.6,33.7,0002.3,0029.08,0010.63,0008.97
2021-08-19 18:31:00,,0825.3,5.00,0.00,30.6,28.2,00.0,39.0,31.7,33.6,0002.5,0029.13,0010.77,0009.00
2021-08-19 18:32:00,,0825.3,4.99,0.00,30.6,28.4,00.0,39.0,31.7,33.5,0002.6,0029.35,0010.88,0009.05
2021-08-19 18:33:00,,0825.3,5.01,0.00,30.7,28.6,00.0,39.1,31.8,33.4,0002.5,0028.45,0010.92,0009.10
2021-08-19 18:34:00,,0825.2,4.99,0.00,30.7,28.8,00.0,39.2,31.9,33.6,0002.4,0027.62,0011.00,0009.15
2021-08-19 18:35:00,,0825.2,5.00,0.00,30.7,28.8,00.0,39.2,31.9,33.7,0002.2,0027.38,0011.04,0009.18
2021-08-19 18:36:00,,0825.2,5.00,0.00,30.7,27.6,00.0,39.2,31.5,33.7,0001.8,0029.04,0011.10,0009.18
2021-08-19 18:37:00,,0825.2,5.00,0.00,30.5,26.4,00.0,39.2,31.1,33.8,0001.7,0031.44,0011.16,0009.20
2021-08-19 18:38:00,,0825.1,5.00,0.00,30.4,26.3,00.0,39.2,31.1,33.7,0002.0,0031.78,0011.17,0009.20
2021-08-19 18:39:00,,0825.1,5.01,0.00,30.3,26.6,00.0,39.2,31.2,33.8,0001.8,0031.36,0011.23,0009.23
2021-08-19 18:40:00,,0825.1,5.01,0.00,30.2,27.1,00.0,39.2,31.3,33.8,0001.7,0030.74,0011.22,0009.26
2021-08-19 18:41:00,,0825.1,5.00,0.00,30.2,27.5,00.0,39.2,31.4,34.0,0001.3,0028.67,0011.17,0009.27
2021-08-19 18:42:00,,0825.2,4.98,0.00,30.2,27.8,00.0,39.2,31.5,33.7,0001.1,0027.14,0011.12,0009.30
2021-08-19 18:43:00,,0825.1,5.01,0.00,30.3,28.1,00.0,39.2,31.6,34.0,0001.1,0026.56,0011.12,0009.34
2021-08-19 18:44:00,,0825.1,4.98,0.00,30.3,28.4,00.0,39.2,31.7,34.4,0001.0,0027.00,0011.17,0009.38
2021-08-19 18:45:00,,0825.2,5.01,0.00,30.3,28.6,00.0,39.2,31.8,34.7,0000.8,0027.64,0011.22,0009.45
2021-08-19 18:46:00,,0825.2,4.99,0.00,30.4,28.7,00.0,39.2,31.8,34.8,0001.0,0028.04,0011.27,0009.50
2021-08-19 18:47:00,,0825.2,5.00,0.00,30.3,27.8,00.0,39.2,31.5,34.9,0001.1,0026.24,0011.32,0009.55
2021-08-19 18:48:00,,0825.2,5.00,0.00,30.3,26.4,00.0,39.2,31.2,35.3,0001.3,0026.12,0011.39,0009.65
2021-08-19 18:49:00,,0825.1,5.02,0.00,30.4,26.1,00.0,39.2,31.3,35.0,0001.0,0027.54,0011.42,0009.73
2021-08-19 18:50:00,,0825.1,4.99,0.00,30.6,26.4,00.0,39.1,31.4,34.2,0001.2,0026.95,0011.43,0009.79
2021-08-19 18:51:00,,0825.1,5.00,0.00,30.7,26.9,00.0,39.1,31.5,33.9,0001.2,0028.56,0011.47,0009.85
2021-08-19 18:52:00,,0825.2,5.00,0.00,30.7,27.3,00.0,39.1,31.5,33.8,0001.2,0029.46,0011.58,0009.91
2021-08-19 18:53:00,,0825.2,5.01,0.00,30.8,27.7,00.0,39.1,31.6,34.1,0001.3,0029.79,0011.66,0009.98
2021-08-19 18:54:00,,0825.2,4.99,0.00,30.8,28.0,00.0,39.2,31.7,34.0,0001.2,0029.65,0011.73,0010.02
2021-08-19 18:55:00,,0825.3,5.00,0.00,30.8,28.3,00.0,39.3,31.8,33.9,0001.1,0029.53,0011.84,0010.02
2021-08-19 18:56:00,,0825.3,4.99,0.00,30.8,28.5,00.0,39.3,31.8,33.7,0001.1,0029.01,0012.01,0010.07
2021-08-19 18:57:00,,0825.3,5.01,0.00,30.9,28.7,00.0,39.4,31.9,33.6,0001.0,0028.22,0012.06,0010.13
2021-08-19 18:58:00,,0825.3,5.00,0.00,30.9,28.7,00.0,39.4,31.9,33.7,0001.1,0027.82,0012.01,0010.18
2021-08-19 18:59:00,,0825.2,5.00,0.00,30.8,27.3,00.0,39.4,31.4,33.8,0000.8,0026.53,0012.14,0010.23
